AirNav   Everest Fuels
 
 1026 users online  

4Y8 Para Field Airport
Yale, Michigan, USA

GOING TO YALE?


FAA INFORMATION EFFECTIVE 10 SEPTEMBER 2020

Location

FAA Identifier: 4Y8
Lat/Long: 43-12-08.0800N 082-45-14.0000W
43-12.134667N 082-45.233333W
43.2022444,-82.7538889
(estimated)
Elevation: 800 ft. / 244 m (estimated)
Variation: 06W (1985)
From city: 5 miles NE of YALE, MI
Time zone: UTC -4 (UTC -5 during Standard Time)
Zip code: 48097

Airport Operations

Airport use: Open to the public
Activation date: 03/1973
Control tower: no
ARTCC: CLEVELAND CENTER
FSS: LANSING FLIGHT SERVICE STATION
NOTAMs facility: LAN (NOTAM-D service available)
Attendance: UNATNDD
ARPT CLSD OCT - MAR & WHEN SNOW COVERD. CALL AMGR FOR RWY CONDITIONS.
Wind indicator: yes
Segmented circle: no

Airport Communications

CTAF: 122.9

Airport Services

Runway Information

Runway 6/24

Dimensions: 2500 x 65 ft. / 762 x 20 m
Surface: turf, in fair condition
Runway edge markings: RYS 06 & 24 DSPLCD THLDS MKD WITH CONES.
RUNWAY 6  RUNWAY 24
Latitude: 43-12.031333N43-12.238000N
Longitude: 082-45.476000W082-44.989333W
Traffic pattern: leftleft
Displaced threshold: 476 ft.200 ft.
Obstructions: 25 ft. trees, 55 ft. right of centerline
APCH RATIO 20:1 AT DSPLCD THLD. 37 FT TREE 50 FT L 750 FT DSTC.
50 ft. trees, 55 ft. left and right of centerline
APCH RATIO 0:1 AT DSPLCD THLD, 40 FT TREES 0 FT DSTC, 68 FT R.

Airport Ownership and Management from official FAA records

Ownership: Privately-owned
Owner: RALPH P. KOHLITZ
39870 MAZUCHET DR
HARRISON TWP, MI 48045
Phone 313-320-2503
Manager: JEFFERY P. KOHLITZ
39748 CANNON DR
HARRISON TWP, MI 48045
Phone 313-320-2503

Airport Operational Statistics

Aircraft operations: 50/year *
100% transient general aviation
* for 12-month period ending 31 December 2017

Additional Remarks

ROLLING TERRAIN; RY SLOPES DOWNWARD AT BOTH ENDS. OPOSITE RY END NOT VSBL FM THLDS.
FOR CD CTC CLEVELAND ARTCC AT 440-774-0224, IF UNA CTC 440-774-0490.

Instrument Procedures

There are no published instrument procedures at 4Y8.

Some nearby airports with instrument procedures:

77G - Marlette Township Airport (16 nm NW)
KPHN - St Clair County International Airport (20 nm SE)
D95 - Dupont-Lapeer Airport (24 nm W)
D98 - Romeo State Airport (26 nm S)
57D - Ray Community Airport (29 nm S)
 
Loc | Ops | Rwys | IFR | FBO | Links
Com | Nav | Svcs | Stats | Notes
Area around 4Y8 (Para Field Airport)
 
Road maps at: MapQuest Bing Google
 
Aerial photo
No photo
 
Sectional chart

 
Airport distance calculator
Flying to Para Field Airport? Find the distance to fly.

From to 4Y8

Sunrise and sunset
Times for 30-Sep-2020
 Local
(UTC-4)
 Zulu
(UTC)
Morning civil twilight07:0111:01
Sunrise07:2911:29
Sunset19:1223:12
Evening civil twilight19:4023:40

Current date and time
Zulu (UTC)  01-Oct-2020 02:16:04
Local (UTC-4)  30-Sep-2020 22:16:04
 
METAR
KPHN 
20nm SE 
010155Z AUTO 24004KT 10SM -RA SCT015 BKN020 OVC039 10/09 A2971 RMK AO2
CYZR 
23nm SE 
010154Z AUTO 27010G18KT 8SM -RA FEW023 SCT060 BKN110 OVC150 11/08 A2969 RMK SLP057
KD95 
24nm W 
010155Z AUTO 26006KT 10SM SCT010 BKN065 OVC090 11/11 A2971 RMK AO2 T01120106
KCFS 
34nm NW 
010155Z AUTO 24005KT 10SM SCT040 BKN060 BKN110 10/09 A2969 RMK AO2 T00980091
KMTC 
35nm S 
010155Z 25006KT 10SM -RA BKN039 OVC055 11/11 A2971 RMK AO2A RAB15 SLP066 P0005 T01110111 $
KBAX 
36nm N 
010155Z AUTO 23004KT 10SM SCT028 BKN034 BKN050 10/09 A2966 RMK AO2 T00980093
TAF
CYZR 
23nm SE 
302318Z 3023/0102 25010G20KT P6SM FEW020 BKN060 TEMPO 3023/0102 3SM -SHRA BR OVC020 PROB30 3023/0101 2SM TSRA BR BKN020CB RMK FCST BASED ON AUTO OBS. NXT FCST WILL BE ISSUED AT 010745Z
NOTAMs
Click for the latest NOTAMs
NOTAMs are issued by the DoD/FAA and will open in a separate window not controlled by AirNav.

 

 
 

Would you like to see your business listed on this page?

 If your business provides an interesting product or service to pilots, flight crews, aircraft, or users of the Para Field Airport, you should consider listing it here.  To start the listing process, click on the button below
 
Add a business
 

Other Pages about Para Field Airport

Page from the Michigan Airport Directory (PDF)
 
Update a link
 
Copyright © AirNav, LLC. All rights reserved. Privacy Policy  Contact